H1 CPF 2 NER 2025 10 31 9 304 01 glonass129 H2 1106402 9129 37868 2025 10 31 0 0 0 2025 11 3 23 45 0 900 1 1 0 0 0 1 H9 10 0 60979 0.00000 0 -15589972.751 -18502954.618 -7946624.038 10 0 60979 900.00000 0 -14782489.344 -17641391.952 -10894441.039 10 0 60979 1800.00000 0 -13627136.552 -16639820.957 -13629534.031 10 0 60979 2700.00000 0 -12127083.582 -15558987.933 -16098462.079 10 0 60979 3600.00000 0 -10298771.910 -14459597.676 -18253001.884 10 0 60979 4500.00000 0 -8171475.663 -13399664.678 -20051104.833 10 0 60979 5400.00000 0 -5786322.822 -12431998.058 -21457728.289 10 0 60979 6300.00000 0 -3194818.179 -11601928.168 -22445524.042 10 0 60979 7200.00000 0 -456930.440 -10945372.041 -22995370.194 10 0 60979 8100.00000 0 2361175.539 -10487319.755 -23096736.341 10 0 60979 9000.00000 0 5189665.588 -10240805.238 -22747875.721 10 0 60979 9900.00000 0 7957715.511 -10206403.885 -21955841.639 10 0 60979 10800.00000 0 10596230.355 -10372276.487 -20736329.318 10 0 60979 11700.00000 0 13040490.039 -10714755.529 -19113347.785 10 0 60979 12600.00000 0 15232611.329 -11199446.795 -17118729.815 10 0 60979 13500.00000 0 17123724.596 -11782797.476 -14791491.083 10 0 60979 14400.00000 0 18675776.256 -12414062.537 -12177052.420 10 0 60979 15300.00000 0 19862883.953 -13037584.606 -9326341.626 10 0 60979 16200.00000 0 20672190.644 -13595290.017 -6294793.312 10 0 60979 17100.00000 0 21104184.886 -14029295.025 -3141266.958 10 0 60979 18000.00000 0 21172476.963 -14284512.250 73095.385 10 0 60979 18900.00000 0 20903043.047 -14311147.932 3286049.511 10 0 60979 19800.00000 0 20332971.491 -14066985.689 6435445.077 10 0 60979 20700.00000 0 19508765.576 -13519361.797 9460414.693 10 0 60979 21600.00000 0 18484274.951 -12646750.142 12302534.176 10 0 60979 22500.00000 0 17318342.759 -11439891.336 14906932.923 10 0 60979 23400.00000 0 16072266.585 -9902419.345 17223334.535 10 0 60979 24300.00000 0 14807178.508 -8050959.524 19207009.394 10 0 60979 25200.00000 0 13581452.314 -5914693.429 20819622.581 10 0 60979 26100.00000 0 12448244.603 -3534407.315 22029962.396 10 0 60979 27000.00000 0 11453270.767 -961062.008 22814536.773 10 0 60979 27900.00000 0 10632907.274 1746058.956 23158027.021 10 0 60979 28800.00000 0 10012698.479 4521548.889 23053590.465 10 0 60979 29700.00000 0 9606329.935 7296337.036 22503005.955 10 0 60979 30600.00000 0 9415111.344 10000308.237 21516658.509 10 0 60979 31500.00000 0 9427991.723 12564977.048 20113361.945 10 0 60979 32400.00000 0 9622107.667 14926107.459 18320021.003 10 0 60979 33300.00000 0 9963843.591 17026170.666 16171137.182 10 0 60979 34200.00000 0 10410361.481 18816539.121 13708165.506 10 0 60979 35100.00000 0 10911537.694 20259325.104 10978732.373 10 0 60979 36000.00000 0 11412226.731 21328786.037 8035727.666 10 0 60979 36900.00000 0 11854757.274 22012236.156 4936287.275 10 0 60979 37800.00000 0 12181555.102 22310424.562 1740684.974 10 0 60979 38700.00000 0 12337781.091 22237361.951 -1488844.941 10 0 60979 39600.00000 0 12273870.966 21819601.841 -4689330.709 10 0 60979 40500.00000 0 11947866.883 21095005.591 -7798306.783 10 0 60979 41400.00000 0 11327439.248 20111043.024 -10755052.147 10 0 60979 42300.00000 0 10391510.136 18922700.786 -13501796.994 10 0 60979 43200.00000 0 9131406.663 17590087.894 -15984872.022 10 0 60979 44100.00000 0 7551492.936 16175841.219 -18155775.803 10 0 60979 45000.00000 0 5669251.877 14742442.436 -19972137.517 10 0 60979 45900.00000 0 3514812.064 13349561.689 -21398554.857 10 0 60979 46800.00000 0 1129938.854 12051541.810 -22407289.881 10 0 60979 47700.00000 0 -1433467.830 10895130.518 -22978808.860 10 0 60979 48600.00000 0 -4115305.528 9917556.795 -23102155.857 10 0 60979 49500.00000 0 -6849549.318 9145032.367 -22775153.444 10 0 60979 50400.00000 0 -9566783.607 8591740.498 -22004427.761 10 0 60979 51300.00000 0 -12196878.996 8259353.039 -20805258.819 10 0 60979 52200.00000 0 -14671701.947 8137093.874 -19201260.531 10 0 60979 53100.00000 0 -16927744.106 8202343.499 -17223898.327 10 0 60979 54000.00000 0 -18908562.105 8421756.562 -14911855.341 10 0 60979 54900.00000 0 -20566927.244 8752842.580 -12310260.959 10 0 60979 55800.00000 0 -21866597.006 9145940.893 -9469798.039 10 0 60979 56700.00000 0 -22783636.753 9546504.650 -6445707.214 10 0 60979 57600.00000 0 -23307238.968 9897596.223 -3296708.352 10 0 60979 58500.00000 0 -23440008.564 10142488.103 -83860.608 10 0 60979 59400.00000 0 -23197705.092 10227259.598 3130616.759 10 0 60979 60300.00000 0 -22608455.046 10103280.335 6284540.239 10 0 60979 61200.00000 0 -21711469.271 9729476.857 9316952.089 10 0 60979 62100.00000 0 -20555320.477 9074288.043 12169282.516 10 0 60979 63000.00000 0 -19195853.584 8117228.231 14786462.968 10 0 60979 63900.00000 0 -17693816.181 6849993.285 17117970.567 10 0 60979 64800.00000 0 -16112307.341 5277063.667 19118785.338 10 0 60979 65700.00000 0 -14514149.980 3415779.071 20750243.530 10 0 60979 66600.00000 0 -12959294.690 1295880.585 21980772.195 10 0 60979 67500.00000 0 -11502361.468 -1041462.170 22786492.250 10 0 60979 68400.00000 0 -10190420.011 -3545100.747 23151679.322 10 0 60979 69300.00000 0 -9061099.645 -6155776.951 23069073.886 10 0 60979 70200.00000 0 -8141106.712 -8808336.765 22540034.490 10 0 60979 71100.00000 0 -7445210.892 -11434200.364 21574530.265 10 0 60979 72000.00000 0 -6975743.099 -13963988.556 20190971.428 10 0 60979 72900.00000 0 -6722626.867 -16330198.980 18415879.125 10 0 60979 73800.00000 0 -6663943.315 -18469822.534 16283398.739 10 0 60979 74700.00000 0 -6767007.704 -20326791.987 13834663.698 10 0 60979 75600.00000 0 -6989914.083 -21854160.715 11117019.827 10 0 60979 76500.00000 0 -7283484.504 -23015919.760 8183123.230 10 0 60979 77400.00000 0 -7593541.619 -23788375.718 5089927.764 10 0 60979 78300.00000 0 -7863409.006 -24161029.770 1897580.871 10 0 60979 79200.00000 0 -8036533.005 -24136918.926 -1331750.925 10 0 60979 80100.00000 0 -8059113.753 -23732403.168 -4535103.397 10 0 60979 81000.00000 0 -7882631.931 -22976405.967 -7649957.858 10 0 60979 81900.00000 0 -7466161.514 -21909139.271 -10615480.336 10 0 60979 82800.00000 0 -6778367.597 -20580366.567 -13373730.357 10 0 60979 83700.00000 0 -5799101.698 -19047277.854 -15870813.584 10 0 60979 84600.00000 0 -4520524.198 -17372067.364 -18057953.687 10 0 60979 85500.00000 0 -2947704.173 -15619317.850 -19892460.643 10 0 60980 0.00000 0 -1098669.687 -13853303.734 -21338575.033 10 0 60980 900.00000 0 996095.668 -12135327.558 -22368171.650 10 0 60980 1800.00000 0 3294686.651 -10521205.721 -22961306.496 10 0 60980 2700.00000 0 5745300.334 -9059007.000 -23106599.248 10 0 60980 3600.00000 0 8288183.167 -7787141.489 -22801442.439 10 0 60980 4500.00000 0 10857919.605 -6732878.708 -22052035.145 10 0 60980 5400.00000 0 13385965.463 -5911355.875 -20873241.809 10 0 60980 6300.00000 0 15803319.308 -5325115.901 -19288280.440 10 0 60980 7200.00000 0 18043219.835 -4964191.864 -17328247.916 10 0 60980 8100.00000 0 20043756.634 -4806731.459 -15031493.218 10 0 60980 9000.00000 0 21750285.930 -4820132.076 -12442852.265 10 0 60980 9900.00000 0 23117551.606 -4962635.876 -9612760.553 10 0 60980 10800.00000 0 24111424.612 -5185315.138 -6596261.941 10 0 60980 11700.00000 0 24710190.288 -5434362.273 -3451933.587 10 0 60980 12600.00000 0 24905332.170 -5653586.655 -240748.429 10 0 60980 13500.00000 0 24701782.054 -5787012.368 2975102.639 10 0 60980 14400.00000 0 24117628.224 -5781467.416 6133406.352 10 0 60980 15300.00000 0 23183296.067 -5589055.816 9173117.887 10 0 60980 16200.00000 0 21940236.878 -5169409.448 12035524.893 10 0 60980 17100.00000 0 20439180.463 -4491625.995 14665363.620 10 0 60980 18000.00000 0 18738024.705 -3535812.554 17011867.131 10 0 60980 18900.00000 0 16899449.592 -2294170.847 19029727.159 10 0 60980 19800.00000 0 14988353.981 -771578.719 20679952.826 10 0 60980 20700.00000 0 13069220.279 1014356.878 21930611.299 10 0 60980 21600.00000 0 11203514.767 3033778.882 22757437.482 10 0 60980 22500.00000 0 9447229.779 5245573.092 23144301.982 10 0 60980 23400.00000 0 7848668.172 7598836.324 23083528.707 10 0 60980 24300.00000 0 6446560.851 10034761.690 22576055.815 10 0 60980 25200.00000 0 5268594.812 12488865.825 21631436.090 10 0 60980 26100.00000 0 4330412.801 14893468.522 20267675.304 10 0 60980 27000.00000 0 3635126.698 17180324.424 18510909.822 10 0 60980 27900.00000 0 3173365.892 19283299.331 16394927.394 10 0 60980 28800.00000 0 2923859.979 21140980.929 13960538.054 10 0 60980 29700.00000 0 2854532.826 22699115.404 11254804.981 10 0 60980 30600.00000 0 2924063.474 23912767.629 8330148.210 10 0 60980 31500.00000 0 3083849.238 24748113.192 5243337.064 10 0 60980 32400.00000 0 3280288.699 25183785.226 2054389.990 10 0 60980 33300.00000 0 3457287.986 25211717.262 -1174597.037 10 0 60980 34200.00000 0 3558883.281 24837444.399 -4380670.143 10 0 60980 35100.00000 0 3531866.827 24079848.087 -7501260.298 10 0 60980 36000.00000 0 3328302.777 22970353.820 -10475423.257 10 0 60980 36900.00000 0 2907823.510 21551614.710 -13245050.400 10 0 60980 37800.00000 0 2239606.157 19875736.381 -15756024.659 10 0 60980 38700.00000 0 1303942.772 18002118.675 -17959296.878 10 0 60980 39600.00000 0 93335.165 15995006.325 -19811859.661 10 0 60980 40500.00000 0 -1386933.861 13920853.341 -21277598.280 10 0 60980 41400.00000 0 -3118778.397 11845613.708 -22328001.092 10 0 60980 42300.00000 0 -5071838.031 9832073.849 -22942715.186 10 0 60980 43200.00000 0 -7204535.006 7937340.010 -23109936.623 10 0 60980 44100.00000 0 -9465615.042 6210586.513 -22826628.299 10 0 60980 45000.00000 0 -11796106.338 4691159.070 -22098562.239 10 0 60980 45900.00000 0 -14131613.632 3407111.591 -20940186.881 10 0 60980 46800.00000 0 -16404850.318 2374235.959 -19374323.457 10 0 60980 47700.00000 0 -18548301.910 1595622.942 -17431699.008 10 0 60980 48600.00000 0 -20496909.073 1061769.644 -15150326.730 10 0 60980 49500.00000 0 -22190658.200 751225.707 -12574747.167 10 0 60980 50400.00000 0 -23576971.832 631747.894 -9755146.374 10 0 60980 51300.00000 0 -24612800.215 661911.443 -6746369.240 10 0 60980 52200.00000 0 -25266328.189 793107.856 -3606847.958 10 0 60980 53100.00000 0 -25518228.028 971843.029 -397466.954 10 0 60980 54000.00000 0 -25362408.051 1142237.693 2819613.577 10 0 60980 54900.00000 0 -24806227.877 1248624.270 5982152.992 10 0 60980 55800.00000 0 -23870173.288 1238130.905 9029021.810 10 0 60980 56700.00000 0 -22587005.856 1063144.497 11901367.575 10 0 60980 57600.00000 0 -21000423.835 683550.093 14543733.786 10 0 60980 58500.00000 0 -19163290.536 68653.586 16905111.841 10 0 60980 59400.00000 0 -17135503.669 -801292.084 18939907.442 10 0 60980 60300.00000 0 -14981593.343 -1934020.654 20608804.653 10 0 60980 61200.00000 0 -12768147.111 -3324690.881 21879512.551 10 0 60980 62100.00000 0 -10561167.112 -4955853.706 22727381.514 10 0 60980 63000.00000 0 -8423466.969 -6797951.113 23135878.267 10 0 60980 63900.00000 0 -6412214.521 -8810328.050 23096910.935 10 0 60980 64800.00000 0 -4576720.595 -10942718.000 22610997.720 10 0 60980 65700.00000 0 -2956564.390 -13137143.414 21687275.147 10 0 60980 66600.00000 0 -1580132.694 -15330155.040 20343344.305 10 0 60980 67500.00000 0 -463633.642 -17455319.802 18604956.212 10 0 60980 68400.00000 0 389373.342 -19445856.006 16505540.099 10 0 60980 69300.00000 0 987910.778 -21237307.617 14085581.398 10 0 60980 70200.00000 0 1352981.049 -22770146.749 11391859.137 10 0 60980 71100.00000 0 1516452.928 -23992195.405 8476555.485 10 0 60980 72000.00000 0 1519482.317 -24860763.940 5396253.194 10 0 60980 72900.00000 0 1410533.074 -25344414.821 2210839.452 10 0 60980 73800.00000 0 1243081.286 -25424275.268 -1017662.752 10 0 60980 74700.00000 0 1073100.687 -25094841.069 -4226312.500 10 0 60980 75600.00000 0 956436.997 -24364235.310 -7352493.168 10 0 60980 76500.00000 0 946184.418 -23253909.074 -10335153.103 10 0 60980 77400.00000 0 1090178.021 -21797795.280 -13116018.479 10 0 60980 78300.00000 0 1428711.074 -20040950.608 -15640752.468 10 0 60980 79200.00000 0 1992576.890 -18037742.754 -17860035.986 10 0 60980 80100.00000 0 2801520.682 -15849660.098 -19730546.999 10 0 60980 81000.00000 0 3863169.115 -13542837.137 -21215817.820 10 0 60980 81900.00000 0 5172484.350 -11185401.240 -22286952.711 10 0 60980 82800.00000 0 6711766.565 -8844753.645 -22923191.351 10 0 60980 83700.00000 0 8451205.090 -6584900.026 -23112307.347 10 0 60980 84600.00000 0 10349954.674 -4463943.272 -22850834.634 10 0 60980 85500.00000 0 12357690.831 -2531843.571 -22144118.384 10 0 60981 0.00000 0 14416577.761 -828539.033 -21006190.908 10 0 60981 900.00000 0 16463566.261 617496.898 -19459475.788 10 0 60981 1800.00000 0 18432921.506 1790200.848 -17534329.237 10 0 60981 2700.00000 0 20258877.721 2686334.034 -15268427.193 10 0 60981 3600.00000 0 21878305.504 3315349.480 -12706012.962 10 0 60981 4500.00000 0 23233281.326 3698721.862 -9897020.900 10 0 60981 5400.00000 0 24273452.174 3868771.318 -6896094.320 10 0 60981 6300.00000 0 24958097.506 3867033.670 -3761517.549 10 0 60981 7200.00000 0 25257803.794 3742248.081 -554083.389 10 0 60981 8100.00000 0 25155683.416 3548048.668 2664081.881 10 0 60981 9000.00000 0 24648088.841 3340458.311 5830713.450 10 0 60981 9900.00000 0 23744794.077 3175290.536 8884600.280 10 0 60981 10800.00000 0 22468637.306 3105568.495 11766752.721 10 0 60981 11700.00000 0 20854640.690 3179068.864 14421524.192 10 0 60981 12600.00000 0 18948644.493 3436092.828 16797666.801 10 0 60981 13500.00000 0 16805512.227 3907556.635 18849302.316 10 0 60981 14400.00000 0 14486980.569 4613480.963 20536791.533 10 0 60981 15300.00000 0 12059241.977 5561941.936 21827486.931 10 0 60981 16200.00000 0 9590358.410 6748527.845 22696355.557 10 0 60981 17100.00000 0 7147611.216 8156325.232 23126461.107 10 0 60981 18000.00000 0 4794894.875 9756436.511 23109296.430 10 0 60981 18900.00000 0 2590260.537 11509009.885 22644959.892 10 0 60981 19800.00000 0 583709.550 13364741.377 21742171.459 10 0 60981 20700.00000 0 -1184672.571 15266789.364 20418126.824 10 0 60981 21600.00000 0 -2686164.731 17153024.788 18698190.528 10 0 60981 22500.00000 0 -3904380.995 18958525.767 16615431.781 10 0 60981 23400.00000 0 -4835722.299 20618214.466 14210009.577 10 0 60981 24300.00000 0 -5489289.177 22069527.170 11528416.681 10 0 60981 25200.00000 0 -5886257.879 23255006.057 8622595.063 10 0 60981 26100.00000 0 -6058744.831 24124703.310 5548938.381 10 0 60981 27000.00000 0 -6048206.273 24638295.104 2367199.911 10 0 60981 27900.00000 0 -5903440.136 24766814.365 -860673.104 10 0 60981 28800.00000 0 -5678274.762 24493926.791 -4071755.514 10 0 60981 29700.00000 0 -5429043.181 23816693.678 -7203385.893 10 0 60981 30600.00000 0 -5211951.547 22745786.905 -10194407.916 10 0 60981 31500.00000 0 -5080455.396 21305145.001 -12986385.147 10 0 60981 32400.00000 0 -5082757.540 19531083.434 -15524763.403 10 0 60981 33300.00000 0 -5259536.307 17470895.970 -17759955.866 10 0 60981 34200.00000 0 -5642002.972 15181006.139 -19648327.806 10 0 60981 35100.00000 0 -6250372.825 12724747.276 -21153060.269 10 0 60981 36000.00000 0 -7092816.274 10169865.597 -22244874.845 10 0 60981 36900.00000 0 -8164935.353 7585852.473 -22902604.927 10 0 60981 37800.00000 0 -9449788.136 5041219.023 -23113602.455 10 0 60981 38700.00000 0 -10918459.808 2600828.078 -22873972.807 10 0 60981 39600.00000 0 -12531155.579 323395.597 -22188634.277 10 0 60981 40500.00000 0 -14238768.385 -1740734.307 -21071202.317 10 0 60981 41400.00000 0 -15984854.180 -3551448.822 -19543702.304 10 0 60981 42300.00000 0 -17707930.569 -5080284.452 -17636118.050 10 0 60981 43200.00000 0 -19344001.237 -6311346.884 -15385786.435 10 0 60981 44100.00000 0 -20829199.466 -7241697.281 -12836651.417 10 0 60981 45000.00000 0 -22102439.574 -7881192.215 -10038393.322 10 0 60981 45900.00000 0 -23107965.261 -8251787.445 -7045451.423 10 0 60981 46800.00000 0 -23797688.746 -8386338.072 -3915959.634 10 0 60981 47700.00000 0 -24133223.760 -8326948.350 -710616.559 10 0 60981 48600.00000 0 -24087528.712 -8122942.845 2508488.030 10 0 60981 49500.00000 0 -23646092.853 -7828545.856 5679067.741 10 0 60981 50400.00000 0 -22807617.443 -7500367.563 8739832.560 10 0 60981 51300.00000 0 -21584164.893 -7194802.724 11631658.190 10 0 60981 52200.00000 0 -20000770.691 -6965450.799 14298710.421 10 0 60981 53100.00000 0 -18094534.847 -6860664.939 16689504.406 10 0 60981 54000.00000 0 -15913230.584 -6921331.576 18757880.092 10 0 60981 54900.00000 0 -13513487.368 -7178972.588 20463876.860 10 0 60981 55800.00000 0 -10958622.377 -7654248.720 21774492.123 10 0 60981 56700.00000 0 -8316208.457 -8355926.489 22664310.752 10 0 60981 57600.00000 0 -5655477.080 -9280352.108 23115994.211 10 0 60981 58500.00000 0 -3044661.505 -10411455.388 23120620.490 10 0 60981 59400.00000 0 -548387.833 -11721285.198 22677868.188 10 0 60981 60300.00000 0 1774780.028 -13171056.468 21796040.471 10 0 60981 61200.00000 0 3874541.222 -14712667.753 20491927.088 10 0 60981 62100.00000 0 5710714.229 -16290628.874 18790505.289 10 0 60981 63000.00000 0 7254671.701 -17844320.796 16724483.165 10 0 60981 63900.00000 0 8490293.685 -19310495.521 14333691.893 10 0 60981 64800.00000 0 9414398.572 -20625912.886 11664336.316 10 0 60981 65700.00000 0 10036632.553 -21730004.440 8768116.262 10 0 60981 66600.00000 0 10378820.871 -22567452.297 5701234.092 10 0 60981 67500.00000 0 10473807.007 -23090573.393 2523306.756 10 0 60981 68400.00000 0 10363827.935 -23261406.817 -703796.840 10 0 60981 69300.00000 0 10098493.818 -23053413.736 -3917170.010 10 0 60981 70200.00000 0 9732458.032 -22452715.409 -7054109.301 10 0 60981 71100.00000 0 9322877.334 -21458814.266 -10053356.493 10 0 60981 72000.00000 0 8926771.538 -20084765.120 -12856315.311 10 0 60981 72900.00000 0 8598396.863 -18356787.371 -15408216.927 10 0 60981 73800.00000 0 8386746.772 -16313333.240 -17659209.360 10 0 60981 74700.00000 0 8333288.658 -14003650.831 -19565347.575 10 0 60981 75600.00000 0 8470034.481 -11485902.614 -21089463.450 10 0 60981 76500.00000 0 8818028.743 -8824919.142 -22201897.649 10 0 60981 77400.00000 0 9386318.909 -6089683.379 -22881078.602 10 0 60981 78300.00000 0 10171452.239 -3350652.248 -23113937.445 10 0 60981 79200.00000 0 11157520.105 -677028.535 -22896151.391 10 0 60981 80100.00000 0 12316747.144 1865902.075 -22232211.780 10 0 60981 81000.00000 0 13610599.253 4219257.519 -21135316.813 10 0 60981 81900.00000 0 14991362.278 6332766.212 -19627092.539 10 0 60981 82800.00000 0 16404123.462 8166603.445 -17737149.145 10 0 60981 83700.00000 0 17789070.847 9692782.743 -15502482.779 10 0 60981 84600.00000 0 19084012.850 10896046.773 -12966736.040 10 0 60981 85500.00000 0 20227011.323 11774223.714 -10179332.888 10 0 60982 0.00000 0 21159017.164 12338037.581 -7194506.202 10 0 60982 900.00000 0 21826398.471 12610384.096 -4070236.097 10 0 60982 1800.00000 0 22183254.604 12625104.981 -867124.239 10 0 60982 2700.00000 0 22193421.848 12425315.804 2352779.156 10 0 60982 3600.00000 0 21832086.635 12061358.858 5527169.128 10 0 60982 4500.00000 0 21086940.705 11588468.740 8594679.560 10 0 60982 5400.00000 0 19958831.127 11064249.212 11496054.168 10 0 60982 6300.00000 0 18461879.025 10546067.138 14175273.549 10 0 60982 7200.00000 0 16623062.640 10088472.177 16580618.044 10 0 60982 8100.00000 0 14481282.092 9740749.362 18665647.664 10 0 60982 9000.00000 0 12085944.068 9544705.827 20390081.979 10 0 60982 9900.00000 0 9495123.955 9532783.242 21720564.675 10 0 60982 10800.00000 0 6773379.762 9726574.024 22631299.497 10 0 60982 11700.00000 0 3989306.119 10135803.084 23104546.424 10 0 60982 12600.00000 0 1212927.095 10757817.970 23130968.990 10 0 60982 13500.00000 0 -1486966.790 11577609.795 22709826.054 10 0 60982 14400.00000 0 -4045429.498 12568365.788 21849003.586 10 0 60982 15300.00000 0 -6403812.065 13692532.666 20564884.570 10 0 60982 16200.00000 0 -8511956.518 14903348.971 18882057.705 10 0 60982 17100.00000 0 -10330040.634 16146784.913 16832868.309 10 0 60982 18000.00000 0 -11829996.728 17363810.869 14456817.765 10 0 60982 18900.00000 0 -12996444.656 18492901.290 11799820.733 10 0 60982 19800.00000 0 -13827098.908 19472670.015 8913332.468 10 0 60982 20700.00000 0 -14332631.367 20244526.383 5853361.491 10 0 60982 21600.00000 0 -14535994.129 20755239.596 2679385.805 10 0 60982 22500.00000 0 -14471229.795 20959301.643 -546806.659 10 0 60982 23400.00000 0 -14181818.776 20820986.746 -3762330.328 10 0 60982 24300.00000 0 -13718633.449 20316017.635 -6904442.333 10 0 60982 25200.00000 0 -13137586.378 19432765.275 -9911785.124 10 0 60982 26100.00000 0 -12497073.542 18172928.619 -12725605.040 10 0 60982 27000.00000 0 -11855322.777 16551663.205 -15290920.902 10 0 60982 27900.00000 0 -11267761.988 14597151.385 -17557617.666 10 0 60982 28800.00000 0 -10784520.966 12349631.174 -19481441.850 10 0 60982 29700.00000 0 -10448174.759 9859924.194 -21024877.767 10 0 60982 30600.00000 0 -10291825.887 7187524.846 -22157886.462 10 0 60982 31500.00000 0 -10337607.733 4398331.666 -22858492.404 10 0 60982 32400.00000 0 -10595672.909 1562116.969 -23113206.588 10 0 60982 33300.00000 0 -11063709.155 -1250158.316 -22917278.342 10 0 60982 34200.00000 0 -11727002.441 -3969071.462 -22274771.921 10 0 60982 35100.00000 0 -12559043.271 -6529392.157 -21198467.697 10 0 60982 36000.00000 0 -13522648.982 -8872553.518 -19709591.363 10 0 60982 36900.00000 0 -14571552.919 -10948837.629 -17837378.022 10 0 60982 37800.00000 0 -15652391.737 -12719186.032 -15618481.252 10 0 60982 38700.00000 0 -16707005.608 -14156561.831 -13096240.139 10 0 60982 39600.00000 0 -17674953.238 -15246809.335 -10319819.899 10 0 60982 40500.00000 0 -18496135.129 -15988978.466 -7343243.958 10 0 60982 41400.00000 0 -19113414.489 -16395103.712 -4224337.124 10 0 60982 42300.00000 0 -19475125.830 -16489450.120 -1023600.997 10 0 60982 43200.00000 0 -19537366.587 -16307260.849 2196956.370 10 0 60982 44100.00000 0 -19265976.549 -15893061.228 5375014.028 10 0 60982 45000.00000 0 -18638123.314 -15298592.190 8449132.309 10 0 60982 45900.00000 0 -17643428.555 -14580460.771 11359925.444 10 0 60982 46800.00000 0 -16284588.983 -13797606.478 14051191.229 10 0 60982 47700.00000 0 -14577466.705 -13008689.276 16470977.452 10 0 60982 48600.00000 0 -12550645.307 -12269507.701 18572566.232 10 0 60982 49500.00000 0 -10244469.609 -11630553.874 20315359.112 10 0 60982 50400.00000 0 -7709607.817 -11134806.311 21665647.499 10 0 60982 51300.00000 0 -5005193.953 -10815851.595 22597255.123 10 0 60982 52200.00000 0 -2196625.208 -10696412.464 23092041.207 10 0 60982 53100.00000 0 646897.140 -10787343.564 23140255.200 10 0 60982 54000.00000 0 3454984.255 -11087137.114 22740736.233 10 0 60982 54900.00000 0 6158728.024 -11581960.227 21900952.783 10 0 60982 55800.00000 0 8693312.846 -12246224.004 20636880.462 10 0 60982 56700.00000 0 11000464.387 -13043662.752 18972718.535 10 0 60982 57600.00000 0 13030634.698 -13928880.554 16940448.380 10 0 60982 58500.00000 0 14744833.080 -14849302.677 14579240.110 10 0 60982 59400.00000 0 16116026.011 -15747451.960 11934716.440 10 0 60982 60300.00000 0 17130046.636 -16563455.891 9058085.952 10 0 60982 61200.00000 0 17785974.383 -17237679.472 6005160.926 10 0 60982 62100.00000 0 18095967.197 -17713372.601 2835277.747 10 0 60982 63000.00000 0 18084552.092 -17939219.073 -389859.499 10 0 60982 63900.00000 0 17787402.819 -17871677.524 -3607389.343 10 0 60982 64800.00000 0 17249655.794 -17477012.758 -6754532.518 10 0 60982 65700.00000 0 16523835.632 -16732928.646 -9769835.102 10 0 60982 66600.00000 0 15667478.907 -15629730.523 -12594388.883 10 0 60982 67500.00000 0 14740558.235 -14170965.221 -15173002.989 10 0 60982 68400.00000 0 13802817.630 -12373509.381 -17455301.756 10 0 60982 69300.00000 0 12911134.101 -10267100.678 -19396725.428 10 0 60982 70200.00000 0 12117019.247 -7893330.762 -20959412.614 10 0 60982 71100.00000 0 11464368.322 -5304142.004 -22112946.239 10 0 60982 72000.00000 0 10987553.235 -2559891.536 -22834947.899 10 0 60982 72900.00000 0 10709940.685 272935.467 -23111509.082 10 0 60982 73800.00000 0 10642897.915 3124266.625 -22937451.405 10 0 60982 74700.00000 0 10785327.272 5923130.086 -22316411.750 10 0 60982 75600.00000 0 11123747.786 8600376.264 -21260751.922 10 0 60982 76500.00000 0 11632918.490 11091319.802 -19791296.095 10 0 60982 77400.00000 0 12276975.082 13338191.877 -17936902.728 10 0 60982 78300.00000 0 13011029.831 15292301.624 -15733880.909 10 0 60982 79200.00000 0 13783165.275 16915818.240 -13225263.940 10 0 60982 80100.00000 0 14536735.942 18183101.650 -10459955.727 10 0 60982 81000.00000 0 15212879.870 19081528.993 -7491767.677 10 0 60982 81900.00000 0 15753133.347 19611785.441 -4378365.716 10 0 60982 82800.00000 0 16102038.597 19787610.336 -1180148.486 10 0 60982 83700.00000 0 16209634.973 19635012.274 2040921.295 10 0 60982 84600.00000 0 16033729.632 19190988.581 5222509.783 10 0 60982 85500.00000 0 15541853.321 18501804.910 8303106.677 99